Theta_e
347 352 351 352 349 355 349 348 350 352 353 352 352 353 353 352 352 351 352 352 352 352 351 352 350 350 350 349 350 351 351 349 349 349 346 339 344 347 348 351 348 344 347
346 347 351 344 354 354 351 345 353 351 349 352 352 353 351 352 353 352 352 352 351 352 353 350 352 352 351 351 350 351 346 342 341 342 341 337 343 344 349 350 346 342 345
346 348 350 347 353 353 350 343 346 352 351 352 352 352 347 350 352 354 352 350 349 346 347 352 350 349 349 349 348 344 341 343 344 341 337 338 335 342 348 351 349 344 346
348 349 351 345 351 350 348 351 348 350 351 348 348 349 337 346 353 352 349 348 347 344 344 341 342 344 345 345 346 348 349 345 345 345 342 333 339 339 347 350 349 346 347
350 349 353 348 350 352 350 348 350 350 351 347 348 343 349 350 353 345 350 342 341 340 341 343 342 343 343 343 344 344 346 341 340 346 339 337 338 344 347 348 349 347 347
350 350 352 352 353 350 352 350 347 342 340 351 349 350 350 347 346 349 346 342 345 345 344 343 341 339 340 341 341 340 339 339 344 344 334 333 336 343 350 349 349 345 347
349 349 351 352 353 352 348 351 347 340 350 351 344 346 352 344 342 346 346 343 343 342 340 337 336 335 335 336 336 337 338 340 343 345 335 334 343 345 346 350 350 347 349
347 349 351 350 349 350 347 343 339 351 351 351 341 342 340 342 341 339 340 339 337 336 336 337 338 341 343 343 343 342 342 344 347 344 338 340 338 346 344 348 348 346 347
350 351 350 350 352 348 341 349 336 346 349 349 351 344 341 343 344 342 343 343 344 343 344 344 344 344 344 345 346 346 346 345 345 343 343 340 340 339 343 342 343 343 340
352 352 349 348 353 349 338 352 345 335 341 341 343 340 342 343 344 344 344 343 344 344 345 346 345 345 346 346 345 346 346 348 348 346 345 343 341 344 345 345 343 340 341
353 349 347 350 349 345 336 345 342 333 333 337 340 341 344 346 347 346 346 344 342 342 344 345 345 346 347 347 346 343 342 345 348 348 347 346 343 342 344 344 342 341 343
351 348 348 348 343 334 326 336 335 337 339 341 343 343 339 342 347 347 346 342 340 341 343 345 345 346 349 350 348 346 342 343 344 346 346 347 343 342 343 348 344 343 343
345 347 346 344 333 329 329 331 336 340 343 345 348 348 348 347 348 349 348 347 346 346 347 347 348 348 351 348 346 346 342 342 342 341 340 341 339 339 340 341 341 341 342
348 347 345 340 337 331 339 337 338 342 344 346 347 348 347 347 348 348 347 345 346 348 348 349 348 350 351 349 346 345 343 342 342 341 339 337 336 337 340 340 339 339 338
348 349 346 344 341 334 335 339 339 342 347 348 349 347 349 348 349 346 344 345 345 346 348 349 348 349 351 348 348 346 344 342 342 341 340 338 336 337 338 339 339 340 338
348 349 348 345 341 337 335 337 344 348 349 348 347 346 347 349 349 345 347 349 348 347 348 350 351 351 352 347 348 344 342 343 342 342 341 340 338 338 339 339 338 338 338
347 349 349 344 342 341 342 344 348 349 350 350 349 345 344 351 350 346 351 350 352 352 350 350 351 353 349 348 351 350 343 340 338 340 342 341 340 341 340 338 338 337 336
347 349 349 345 342 342 342 343 349 353 351 350 351 351 345 349 350 349 348 352 352 348 349 350 353 354 349 351 352 350 347 341 340 342 342 341 341 341 340 339 337 334 334
346 348 350 345 342 343 348 347 353 351 351 350 350 350 350 348 351 351 347 349 349 351 351 354 354 352 351 351 350 349 348 341 341 341 342 342 342 343 340 338 334 333 333
347 347 349 345 342 346 349 351 353 351 351 351 350 351 351 351 350 349 346 345 347 352 352 353 354 353 354 352 351 350 346 341 342 343 344 344 344 342 340 339 334 334 334
347 347 347 346 344 346 351 351 354 351 350 351 349 348 349 352 348 344 343 343 344 347 352 354 353 355 354 354 352 349 345 338 342 341 342 343 342 341 342 342 337 335 338
346 347 347 346 345 345 347 348 352 351 348 350 349 347 347 351 348 345 347 348 350 347 348 351 354 353 355 354 350 343 340 341 341 342 343 344 344 343 342 342 336 337 339
346 346 346 346 346 345 346 348 352 351 347 350 349 348 348 351 350 349 349 350 351 349 350 353 354 355 355 355 353 347 343 338 337 343 344 343 342 342 341 342 341 339 339
346 346 346 346 346 346 346 348 350 349 347 349 348 349 350 353 351 351 350 351 351 349 351 353 352 353 355 355 354 350 347 342 340 341 344 343 342 338 339 338 341 341 339
346 346 346 346 346 347 346 344 346 349 345 348 348 350 351 351 351 353 352 350 350 351 352 354 352 352 353 353 352 349 348 346 343 339 343 342 341 334 339 340 338 334 333
345 347 347 347 347 348 348 348 348 347 345 347 346 349 350 350 351 352 353 352 352 352 353 354 353 352 351 349 350 347 345 346 345 343 340 340 340 331 330 327 327 327 326
Wind_Speed
14 12 14 11 15 14 16 17 18 18 17 18 19 18 18 18 17 16 15 16 14 13 13 13 13 13 13 12 12 11 11 10 9 8 8 9 10 8 7 5 6 7 6
19 18 14 16 13 13 15 15 16 16 16 16 17 17 17 17 15 15 16 14 13 13 12 13 13 13 13 12 10 10 8 7 7 7 6 5 8 9 5 5 4 5 6
19 17 17 16 14 13 13 14 15 15 15 15 15 15 15 16 14 15 14 13 13 11 12 11 12 12 12 10 9 7 4 3 3 5 2 4 5 7 4 9 6 6 7
20 19 18 17 14 13 14 13 13 14 14 15 15 13 13 14 14 12 12 12 12 11 10 10 10 9 8 7 6 4 0 3 6 7 8 6 7 6 8 7 7 7 8
20 20 18 17 15 13 13 13 13 13 13 12 12 12 13 13 12 12 11 10 10 9 7 6 6 5 5 4 3 1 2 8 9 9 5 6 7 8 7 8 8 7 7
21 19 17 16 14 14 13 12 11 11 12 12 10 11 11 10 10 10 9 8 7 6 5 3 3 3 3 2 1 3 5 9 10 12 12 10 7 7 7 8 7 7 7
22 20 17 16 15 14 12 13 11 11 12 10 9 11 10 9 9 8 6 6 5 3 3 1 1 1 1 1 3 5 6 8 8 9 8 6 6 8 7 9 8 8 9
23 20 18 16 15 13 13 12 11 12 11 9 9 9 8 7 7 6 5 4 3 2 2 2 3 3 4 3 3 6 8 9 10 9 7 6 6 7 11 10 9 9 9
23 22 20 17 14 13 12 11 11 12 10 10 8 8 7 6 5 4 3 3 1 1 2 3 5 5 6 7 8 11 12 13 10 12 9 9 9 12 15 13 12 14 11
23 21 20 17 16 13 12 12 10 11 10 9 8 7 6 5 3 3 3 3 2 2 3 5 5 4 7 7 8 10 11 13 15 14 13 11 8 9 12 13 13 12 12
21 19 18 17 16 13 11 12 10 10 10 9 8 6 5 4 3 2 3 3 3 4 5 5 5 5 5 6 8 11 10 4 3 10 13 11 10 10 11 12 13 13 14
21 21 19 17 14 13 13 14 13 11 11 9 7 5 4 3 2 1 1 2 2 3 3 5 6 8 10 11 10 12 9 5 2 5 9 11 11 11 10 12 13 15 15
24 22 20 17 14 15 15 15 14 13 10 8 6 4 2 1 2 2 1 1 2 3 2 3 6 7 9 11 11 10 8 3 3 1 7 10 11 10 9 10 12 12 13
25 23 21 18 16 16 15 15 15 14 11 9 7 4 2 0 2 3 2 2 2 3 4 3 4 5 7 10 10 9 7 5 2 2 7 9 9 9 10 11 13 13 11
26 22 22 19 17 17 16 16 15 13 10 8 7 5 3 2 3 2 4 1 2 4 4 4 4 5 5 8 10 10 9 7 5 5 6 9 10 10 9 9 9 9 10
26 24 22 20 19 17 16 17 15 13 10 8 7 8 7 4 1 2 2 4 6 7 5 7 6 5 6 8 7 9 10 10 9 6 4 7 8 9 9 7 6 9 10
27 26 23 21 21 19 17 15 15 14 12 12 11 10 9 7 6 3 2 6 9 10 8 10 8 9 6 5 8 8 8 7 6 5 7 8 9 10 9 10 10 8 8
29 29 26 24 24 20 18 15 15 17 18 17 16 14 12 10 8 8 4 7 6 4 7 11 9 7 10 8 9 10 11 8 3 4 5 11 12 13 13 12 13 10 9
33 32 32 28 26 22 18 16 11 8 9 13 16 15 13 12 11 9 8 6 6 6 9 3 3 5 9 10 11 14 15 6 2 5 5 9 10 13 12 14 13 11 10
36 36 36 32 29 25 21 18 14 12 9 7 9 11 15 16 14 14 11 11 9 8 7 6 9 9 9 10 12 11 12 4 4 6 8 8 9 7 14 15 14 13 12
34 37 38 37 34 30 26 23 19 16 14 9 9 10 11 17 17 15 14 14 13 10 8 7 8 9 10 11 14 12 7 8 8 4 14 5 3 10 13 16 17 16 15
37 38 37 40 36 34 30 27 22 20 15 12 9 11 13 14 16 17 15 13 11 11 12 10 11 10 8 9 6 4 4 7 4 10 9 4 9 14 15 15 17 17 16
31 38 41 41 37 36 33 28 21 19 19 16 13 12 9 12 18 19 19 19 16 13 14 12 13 10 8 11 8 4 2 3 5 4 10 5 12 16 12 12 16 17 14
35 41 41 41 38 34 33 30 28 22 23 22 18 14 11 10 16 21 21 20 20 15 16 14 14 14 12 13 12 8 10 7 1 4 6 10 13 11 6 5 6 8 7
34 35 41 41 39 35 33 32 30 28 26 24 18 15 13 13 18 23 25 22 22 19 19 15 12 13 12 12 11 7 4 7 7 7 3 7 6 14 12 11 10 7 6
33 34 35 39 42 39 36 34 31 29 29 25 24 21 18 18 16 15 21 24 26 24 23 19 13 8 5 7 9 6 6 3 5 4 4 3 3 9 16 16 12 9 6
Wind_Direction
164 149 139 131 123 116 112 112 110 109 106 102 103 106 106 107 107 109 108 107 105 103 102 103 97 93 96 98 100 102 107 120 130 138 139 140 136 133 133 143 137 134 134
149 154 151 146 136 122 115 112 108 108 101 100 104 103 100 103 104 105 107 103 107 107 105 99 93 94 96 101 108 111 132 140 143 148 137 144 151 148 164 174 176 157 161
153 151 156 155 140 129 119 112 108 105 101 104 102 103 101 106 109 106 105 107 109 112 112 107 104 107 109 113 112 115 138 157 184 176 125 199 174 168 160 187 188 177 177
152 155 159 155 145 137 121 112 110 110 111 110 107 109 110 116 112 111 108 111 113 116 119 108 107 108 106 105 108 120 320 274 291 303 267 216 198 181 163 181 195 190 185
153 157 155 154 150 136 128 123 123 122 116 114 122 120 116 117 118 114 110 112 115 115 110 95 93 90 95 78 66 24 299 299 306 313 303 287 218 193 194 194 201 197 190
152 153 155 155 145 136 138 130 127 129 131 126 127 117 125 120 121 120 113 109 107 102 92 77 74 85 80 65 317 280 288 296 312 317 314 286 250 206 214 206 206 207 205
151 148 150 147 143 146 142 137 134 132 125 135 130 134 131 121 117 112 102 94 91 83 85 71 19 350 333 310 277 276 271 288 294 303 315 277 244 227 228 230 217 216 221
155 152 149 153 154 156 149 145 140 130 137 130 128 132 129 122 114 106 94 84 73 56 19 354 13 11 358 345 309 287 282 269 279 287 286 253 263 246 239 236 231 237 234
159 155 159 158 153 154 146 138 139 145 143 139 137 129 122 116 111 103 90 69 47 30 360 350 346 346 346 334 315 295 285 283 269 271 265 261 264 250 235 223 223 225 228
164 164 163 160 161 155 148 143 143 150 154 151 141 132 129 112 101 86 80 66 30 16 357 341 342 345 328 323 329 327 312 275 264 262 261 264 267 260 230 226 229 234 237
168 168 167 166 164 160 158 152 149 149 151 146 139 125 114 112 103 89 70 49 19 5 6 7 7 4 14 15 12 11 14 350 276 247 252 261 263 260 235 230 233 235 236
174 176 174 173 168 162 163 159 157 153 150 144 138 127 105 86 81 48 41 45 46 42 5 14 19 19 21 11 14 23 30 40 27 262 232 238 241 251 243 237 239 239 237
180 178 181 179 173 167 164 159 160 161 162 155 144 126 96 324 309 305 345 353 304 310 344 9 21 15 6 7 8 10 29 80 63 218 216 221 222 229 225 241 244 247 246
180 181 180 179 173 172 170 169 169 174 171 159 149 135 116 264 273 275 301 297 278 280 289 326 16 356 351 351 14 356 22 29 356 259 220 219 217 223 230 236 238 238 245
180 182 183 183 182 178 179 180 181 188 185 178 189 180 162 192 340 90 119 88 345 304 287 313 339 358 357 347 360 355 344 348 337 314 253 227 224 227 240 248 247 250 251
184 186 185 187 185 183 185 190 191 196 193 194 193 186 200 236 241 199 334 337 301 298 294 290 277 302 330 329 349 2 342 325 314 301 280 238 237 241 244 251 269 266 267
190 190 190 186 188 190 190 199 207 211 216 218 215 218 217 220 215 197 304 325 313 282 282 284 266 268 293 314 311 334 345 344 307 271 275 248 247 249 250 244 247 258 253
195 196 193 192 194 198 205 218 239 243 235 238 239 232 232 240 225 220 257 324 349 344 311 292 252 249 313 316 319 336 343 325 301 279 270 239 250 247 241 242 241 238 247
200 199 197 196 196 199 203 209 219 186 207 238 246 239 236 242 243 235 240 269 315 317 356 319 218 279 305 327 332 333 330 279 315 304 284 267 261 255 265 261 242 238 252
204 203 199 197 200 198 196 207 208 197 205 206 229 243 247 249 252 254 257 252 276 308 326 301 288 294 308 327 318 319 316 264 227 347 329 314 251 248 268 270 243 246 264
203 200 202 199 202 200 200 203 212 209 215 214 225 248 269 240 250 257 262 256 270 277 299 312 315 308 325 320 319 330 330 315 235 322 325 331 300 333 293 281 242 240 268
198 200 200 201 202 206 211 210 217 226 225 227 231 244 268 230 235 244 251 259 274 274 272 285 305 318 312 321 334 339 341 324 298 303 305 316 318 330 307 285 240 265 272
194 198 202 204 206 209 212 214 215 228 229 236 236 241 256 244 236 247 256 261 267 278 282 293 300 313 310 316 314 276 330 252 323 321 316 315 319 324 309 288 259 261 278
199 203 205 207 208 211 213 213 214 219 222 232 241 247 259 273 257 254 259 264 265 275 284 300 319 314 309 306 309 297 288 277 288 321 301 321 352 6 347 313 271 259 295
198 200 207 210 211 212 210 214 217 223 229 234 243 247 260 281 273 262 256 264 274 280 287 292 320 319 318 308 309 314 331 310 271 233 283 310 8 23 50 71 78 71 44
198 198 201 207 213 214 213 214 217 221 226 232 240 248 254 265 278 277 261 267 279 283 286 288 303 313 295 300 295 310 313 287 282 257 251 303 318 48 74 75 70 61 36